This is the latest recevied weather packets stored in our database for station/object SV8FES. If no packets are shown the sender has not sent any weather packets the latest 1 day(s).
| Time | Temp. | Humidity | Pressure | Rain* | Wind** | Luminosity | Snow |
|---|---|---|---|---|---|---|---|
| 1778061160 | 22.78° C | 49% | 1016.7 hPa | 0 mm | - | 759 W/m² | - |
| 1778060977 | 22.78° C | 50% | 1016.7 hPa | 0 mm | - | 905 W/m² | - |
| 1778060797 | 22.78° C | 47% | 1016.6 hPa | 0 mm | - | 911 W/m² | - |
| 1778060737 | 22.78° C | 45% | 1016.7 hPa | 0 mm | - | 905 W/m² | - |
| 1778060672 | 23.33° C | 44% | 1016.7 hPa | 0 mm | - | 907 W/m² | - |
| 1778060492 | 23.33° C | 44% | 1016.7 hPa | 0 mm | - | 905 W/m² | - |
| 1778060431 | 23.33° C | 45% | 1016.7 hPa | 0 mm | - | 907 W/m² | - |
| 1778060372 | 23.33° C | 45% | 1016.7 hPa | 0 mm | - | 912 W/m² | - |
| 1778060251 | 22.78° C | 43% | 1016.7 hPa | 0 mm | - | 907 W/m² | - |
| 1778060133 | 22.78° C | 44% | 1016.7 hPa | 0 mm | - | 904 W/m² | - |
| 1778060075 | 22.78° C | 44% | 1016.7 hPa | 0 mm | - | 912 W/m² | - |
| 1778060012 | 22.78° C | 43% | 1016.7 hPa | 0 mm | - | 907 W/m² | - |
| 1778059952 | 22.78° C | 42% | 1016.7 hPa | 0 mm | - | 905 W/m² | - |
| 1778059892 | 22.78° C | 42% | 1016.7 hPa | 0 mm | - | 909 W/m² | - |
| 1778059712 | 22.78° C | 44% | 1016.7 hPa | 0 mm | - | 900 W/m² | - |
| 1778059532 | 23.33° C | 44% | 1016.6 hPa | 0 mm | - | 900 W/m² | - |
| 1778059472 | 23.33° C | 44% | 1016.7 hPa | 0 mm | - | 896 W/m² | - |
| 1778059412 | 23.33° C | 44% | 1016.6 hPa | 0 mm | - | 904 W/m² | - |
| 1778059292 | 22.78° C | 44% | 1016.7 hPa | 0 mm | - | 898 W/m² | - |
| 1778059228 | 22.78° C | 44% | 1016.7 hPa | 0 mm | - | 893 W/m² | - |
| 1778059168 | 23.33° C | 43% | 1016.7 hPa | 0 mm | - | 898 W/m² | - |
| 1778059046 | 23.33° C | 40% | 1016.7 hPa | 0 mm | - | 893 W/m² | - |
| 1778058927 | 23.33° C | 41% | 1016.7 hPa | 0 mm | - | 902 W/m² | - |
| 1778058867 | 23.33° C | 40% | 1016.7 hPa | 0 mm | - | 898 W/m² | - |
| 1778058747 | 23.33° C | 39% | 1016.7 hPa | 0 mm | - | 888 W/m² | - |
* Rain latest hour (hover to see other rain measurements)
** Current wind speed in m/s (hover to see current wind gust speed)